Content
SEND FEEDBACK

Daily
Averages
Monthly
Summary
United States of America

GRAFTON, ILLINOIS


Home > North America > United States > Illinois
Elevation: 400 feet     Latitude: 38 58N     Longitude: 090 26W

WEATHER
 
SELECT A DAY
Number of Records: 170,249;   Date Range: 10/8/98 - 10/19/14
 
SHARE

PRINT THIS DATA

[ ← Previous Day ]
WEATHER ALMANAC - MARCH 23, 2013
[ Next Day → ]
[ °C ]   °F
Weather ElementAverageHighLow
Temperature43.7 °F52 °F (3:54 pm)36 °F (3:54 am)
Dewpoint27.3 °F33.1 °F (8:54 pm)21.9 °F (10:54 am)
Humidity53.4 %70 % (11:54 pm)39 % (1:54 pm)
Barometer29.96 in30.06 in (8:54 am)29.85 in (7:54 pm)
Wind Speed9.1 mph16.1 mph (5:54 pm)
Wind Gust27.6 mph (7:54 pm)
Weather ElementAverage
Visibility9.7 mi
Wind DirectionENE (56.1 °)

Weather ElementTotal
Precipitation0.01 in
Heating Degree Days21 (Base 65)
Averaged from 23 records on March 23, 2013
WEATHER CONDITIONS BREAKOUT
WIND DIRECTION BREAKOUT
WEATHER BY HOUR - MARCH 23, 2013
[ °C ]   °F
Local TimeTemperatureDewpointHumidityBarometerVisibilityWind DirectionWind SpeedGust SpeedPrecipitationEventsConditions
1:54 AM37.0 °F25.0 °F62 %30.04 in10.0 miCalmOvercast
2:54 AM37.0 °F25.0 °F62 %30.03 in10.0 miNE (50°)3.5 mphOvercast
3:54 AM36.0 °F24.1 °F62 %30.01 in10.0 miNE (50°)3.5 mphOvercast
4:54 AM36.0 °F25.0 °F64 %30.01 in10.0 miNE (40°)4.6 mphOvercast
5:54 AM36.0 °F26.1 °F67 %30.02 in10.0 miNE (50°)4.6 mphOvercast
6:54 AM36.0 °F25.0 °F64 %30.04 in10.0 miNE (50°)5.8 mphOvercast
7:54 AM37.0 °F24.1 °F59 %30.05 in10.0 miNE (50°)5.8 mphOvercast
8:54 AM37.9 °F24.1 °F57 %30.06 in10.0 miENE (60°)5.8 mphOvercast
9:54 AM42.1 °F25.0 °F51 %30.04 in10.0 miENE (70°)9.2 mphOvercast
10:54 AM43.0 °F21.9 °F43 %30.05 in10.0 miEast (80°)9.2 mphOvercast
11:54 AM46.9 °F24.1 °F41 %30.04 in10.0 miEast (80°)9.2 mphOvercast
12:54 PM48.9 °F26.1 °F41 %30.01 in10.0 miEast (80°)9.2 mphClear
1:54 PM51.1 °F27.0 °F39 %29.98 in10.0 miENE (60°)10.4 mphClear
2:54 PM51.1 °F28.0 °F41 %29.96 in10.0 miEast (80°)9.2 mphClear
3:54 PM52.0 °F28.9 °F41 %29.90 in10.0 miENE (60°)12.7 mph20.7 mphMostly Cloudy
4:54 PM52.0 °F30.0 °F43 %29.88 in10.0 miENE (70°)13.8 mph23.0 mphScattered Clouds
5:54 PM50.0 °F30.0 °F46 %29.87 in10.0 miENE (60°)16.1 mphMostly Cloudy
6:54 PM50.0 °F30.9 °F48 %29.89 in10.0 miNE (40°)9.2 mphOvercast
7:54 PM46.9 °F32.0 °F56 %29.85 in6.0 miENE (60°)9.2 mph27.6 mph0.01 inRainLight Rain
8:54 PM46.0 °F33.1 °F61 %29.85 in10.0 miNE (40°)10.4 mph0.00 inRainLight Rain
9:54 PM46.9 °F30.9 °F54 %29.85 in10.0 miNE (50°)15.0 mph0.00 inRainLight Rain
10:54 PM45.0 °F30.0 °F56 %29.87 in10.0 miENE (70°)16.1 mph0.00 inOvercast
11:54 PM41.0 °F32.0 °F70 %29.87 in8.0 miNE (40°)16.1 mph0.00 inRainLight Rain
Hourly data recorded from KSET, located miles away from Grafton, Illinois







STORIES FROM OUR PARTNERS